Time,TemperatureF,DewpointF,PressureIn,WindDirection,WindDirectionDegrees,WindSpeedMPH,WindSpeedGustMPH,Humidity,HourlyPrecipIn,Conditions,Clouds,dailyrainin,SoftwareType,DateUTC
2013-03-08 00:00:00,29.1,24.6,30.53,NW,309,6.0,8.0,83,0.00,,,0.00,Wunderground v.1.15,2013-03-08 05:00:00,
2013-03-08 00:05:00,29.1,24.6,30.53,NW,312,6.0,8.0,83,0.00,,,0.00,Wunderground v.1.15,2013-03-08 05:05:00,
2013-03-08 00:10:00,29.0,24.5,30.53,NW,325,6.0,6.0,83,0.00,,,0.00,Wunderground v.1.15,2013-03-08 05:10:00,
2013-03-08 00:15:00,29.1,24.6,30.53,NW,317,6.0,7.0,83,0.00,,,0.00,Wunderground v.1.15,2013-03-08 05:15:00,
2013-03-08 00:20:00,29.0,24.5,30.53,NW,319,6.0,6.0,83,0.00,,,0.00,Wunderground v.1.15,2013-03-08 05:20:00,
2013-03-08 00:25:00,29.1,24.6,30.53,NW,304,6.0,6.0,83,0.00,,,0.00,Wunderground v.1.15,2013-03-08 05:25:00,
2013-03-08 00:30:00,29.1,24.3,30.53,NW,319,7.0,7.0,82,0.00,,,0.00,Wunderground v.1.15,2013-03-08 05:30:00,
2013-03-08 00:35:00,29.1,24.3,30.53,NW,310,7.0,7.0,82,0.00,,,0.00,Wunderground v.1.15,2013-03-08 05:35:00,
2013-03-08 00:40:00,29.1,24.3,30.53,NW,322,6.0,6.0,82,0.00,,,0.00,Wunderground v.1.15,2013-03-08 05:40:00,
2013-03-08 00:45:00,29.0,24.2,30.53,NW,318,5.0,6.0,82,0.00,,,0.00,Wunderground v.1.15,2013-03-08 05:45:00,
2013-03-08 00:50:00,29.0,24.2,30.54,NW,319,6.0,6.0,82,0.00,,,0.00,Wunderground v.1.15,2013-03-08 05:50:00,
2013-03-08 01:00:00,29.1,24.0,30.53,NW,321,5.0,6.0,81,0.00,,,0.00,Wunderground v.1.15,2013-03-08 06:00:00,
2013-03-08 01:05:00,29.1,24.0,30.54,NW,310,5.0,7.0,81,0.00,,,0.00,Wunderground v.1.15,2013-03-08 06:05:00,
2013-03-08 01:10:00,29.0,23.6,30.54,NW,320,6.0,6.0,80,0.00,,,0.00,Wunderground v.1.15,2013-03-08 06:10:00,
2013-03-08 01:15:00,29.0,23.9,30.54,NNW,329,6.0,11.0,81,0.00,,,0.00,Wunderground v.1.15,2013-03-08 06:15:00,
2013-03-08 01:20:00,28.7,23.9,30.54,NNW,342,7.0,7.0,82,0.00,,,0.00,Wunderground v.1.15,2013-03-08 06:20:00,
2013-03-08 01:30:00,28.2,24.0,30.54,NNW,340,7.0,11.0,84,0.00,,,0.00,Wunderground v.1.15,2013-03-08 06:30:00,
2013-03-08 01:35:00,28.0,24.4,30.54,NNW,335,7.0,11.0,86,0.00,,,0.00,Wunderground v.1.15,2013-03-08 06:35:00,
2013-03-08 01:40:00,27.7,24.3,30.54,North,355,7.0,11.0,87,0.00,,,0.00,Wunderground v.1.15,2013-03-08 06:40:00,
2013-03-08 01:45:00,27.5,24.4,30.54,NNW,336,7.0,11.0,88,0.00,,,0.00,Wunderground v.1.15,2013-03-08 06:45:00,
2013-03-08 01:50:00,27.4,24.3,30.54,NNW,329,6.0,6.0,88,0.00,,,0.00,Wunderground v.1.15,2013-03-08 06:50:00,
2013-03-08 01:55:00,27.3,24.2,30.54,NNW,329,6.0,11.0,88,0.00,,,0.00,Wunderground v.1.15,2013-03-08 06:55:00,
2013-03-08 02:00:00,27.3,24.2,30.54,NW,325,7.0,11.0,88,0.00,,,0.00,Wunderground v.1.15,2013-03-08 07:00:00,
2013-03-08 02:05:00,27.3,24.2,30.54,NW,311,6.0,11.0,88,0.00,,,0.00,Wunderground v.1.15,2013-03-08 07:05:00,
2013-03-08 02:10:00,27.2,24.4,30.54,NNW,338,6.0,11.0,89,0.00,,,0.00,Wunderground v.1.15,2013-03-08 07:10:00,
2013-03-08 02:15:00,27.2,24.4,30.54,NW,317,7.0,11.0,89,0.00,,,0.00,Wunderground v.1.15,2013-03-08 07:15:00,
2013-03-08 02:20:00,27.2,24.4,30.54,NNW,338,6.0,6.0,89,0.00,,,0.00,Wunderground v.1.15,2013-03-08 07:20:00,
2013-03-08 02:25:00,27.2,24.4,30.55,NW,313,5.0,9.0,89,0.00,,,0.00,Wunderground v.1.15,2013-03-08 07:25:00,
2013-03-08 02:30:00,27.1,24.6,30.55,NNW,335,5.0,5.0,90,0.00,,,0.00,Wunderground v.1.15,2013-03-08 07:30:00,
2013-03-08 02:35:00,27.1,24.6,30.54,NW,324,5.0,11.0,90,0.00,,,0.00,Wunderground v.1.15,2013-03-08 07:35:00,
2013-03-08 02:40:00,27.0,24.7,30.55,North,5,4.0,4.0,91,0.00,,,0.00,Wunderground v.1.15,2013-03-08 07:40:00,
2013-03-08 02:45:00,27.0,24.7,30.55,NW,317,4.0,5.0,91,0.00,,,0.00,Wunderground v.1.15,2013-03-08 07:45:00,
2013-03-08 02:50:00,27.0,24.7,30.55,NNW,328,4.0,4.0,91,0.00,,,0.00,Wunderground v.1.15,2013-03-08 07:50:00,
2013-03-08 02:55:00,26.9,24.9,30.55,NW,319,4.0,11.0,92,0.00,,,0.00,Wunderground v.1.15,2013-03-08 07:55:00,
2013-03-08 03:00:00,26.8,24.8,30.55,NNW,331,4.0,11.0,92,0.00,,,0.00,Wunderground v.1.15,2013-03-08 08:00:00,
2013-03-08 03:10:00,26.8,24.8,30.55,NNW,334,5.0,5.0,92,0.00,,,0.00,Wunderground v.1.15,2013-03-08 08:10:00,
2013-03-08 03:15:00,26.7,24.7,30.55,NW,320,5.0,11.0,92,0.00,,,0.00,Wunderground v.1.15,2013-03-08 08:15:00,
2013-03-08 03:20:00,26.8,24.8,30.55,NNW,327,5.0,11.0,92,0.00,,,0.00,Wunderground v.1.15,2013-03-08 08:20:00,
2013-03-08 03:25:00,26.7,24.7,30.55,NNW,329,4.0,11.0,92,0.00,,,0.00,Wunderground v.1.15,2013-03-08 08:25:00,
2013-03-08 03:30:00,26.7,24.9,30.55,NW,313,5.0,5.0,93,0.00,,,0.00,Wunderground v.1.15,2013-03-08 08:30:00,
2013-03-08 03:40:00,26.7,24.9,30.55,NW,316,4.0,4.0,93,0.00,,,0.00,Wunderground v.1.15,2013-03-08 08:40:00,
2013-03-08 03:45:00,26.7,24.9,30.55,NW,323,4.0,11.0,93,0.00,,,0.00,Wunderground v.1.15,2013-03-08 08:45:00,
2013-03-08 03:50:00,26.7,24.9,30.55,NW,313,4.0,4.0,93,0.00,,,0.00,Wunderground v.1.15,2013-03-08 08:50:00,
2013-03-08 03:55:00,26.7,24.9,30.56,NW,313,4.0,11.0,93,0.00,,,0.00,Wunderground v.1.15,2013-03-08 08:55:00,
2013-03-08 04:00:00,26.8,25.0,30.56,NW,318,4.0,11.0,93,0.00,,,0.00,Wunderground v.1.15,2013-03-08 09:00:00,
2013-03-08 04:05:00,26.8,25.0,30.56,NW,319,5.0,11.0,93,0.00,,,0.00,Wunderground v.1.15,2013-03-08 09:05:00,
2013-03-08 04:10:00,26.8,25.0,30.56,NW,319,5.0,5.0,93,0.00,,,0.00,Wunderground v.1.15,2013-03-08 09:10:00,
2013-03-08 04:15:00,26.8,25.0,30.56,NW,321,4.0,11.0,93,0.00,,,0.00,Wunderground v.1.15,2013-03-08 09:15:00,
2013-03-08 04:20:00,26.9,25.1,30.57,NW,319,4.0,11.0,93,0.00,,,0.00,Wunderground v.1.15,2013-03-08 09:20:00,
2013-03-08 04:25:00,26.9,25.1,30.57,NW,314,4.0,11.0,93,0.00,,,0.00,Wunderground v.1.15,2013-03-08 09:25:00,
2013-03-08 04:30:00,26.9,25.1,30.57,NNW,328,4.0,4.0,93,0.00,,,0.00,Wunderground v.1.15,2013-03-08 09:30:00,
2013-03-08 04:35:00,26.9,25.1,30.57,NW,319,3.0,11.0,93,0.00,,,0.00,Wunderground v.1.15,2013-03-08 09:35:00,
2013-03-08 04:45:00,26.8,25.3,30.57,NNW,333,4.0,11.0,94,0.00,,,0.00,Wunderground v.1.15,2013-03-08 09:45:00,
2013-03-08 04:50:00,26.9,25.4,30.58,NW,325,4.0,4.0,94,0.00,,,0.00,Wunderground v.1.15,2013-03-08 09:50:00,
2013-03-08 04:55:00,26.9,25.4,30.58,NNW,332,5.0,5.0,94,0.00,,,0.00,Wunderground v.1.15,2013-03-08 09:55:00,
2013-03-08 05:00:00,26.9,25.4,30.58,NW,319,4.0,11.0,94,0.00,,,0.00,Wunderground v.1.15,2013-03-08 10:00:00,
2013-03-08 05:05:00,26.8,25.3,30.58,NW,321,4.0,11.0,94,0.00,,,0.00,Wunderground v.1.15,2013-03-08 10:05:00,
2013-03-08 05:10:00,26.8,25.3,30.58,NNW,334,4.0,4.0,94,0.00,,,0.00,Wunderground v.1.15,2013-03-08 10:10:00,
2013-03-08 05:19:00,26.8,25.3,30.58,NW,325,4.0,4.0,94,0.00,,,0.00,Wunderground v.1.15,2013-03-08 10:19:00,
2013-03-08 05:24:00,26.8,25.3,30.59,NW,313,5.0,6.0,94,0.00,,,0.00,Wunderground v.1.15,2013-03-08 10:24:00,
2013-03-08 05:29:00,26.9,25.4,30.59,NW,314,4.0,11.0,94,0.00,,,0.00,Wunderground v.1.15,2013-03-08 10:29:00,
2013-03-08 05:34:00,26.9,25.4,30.59,NW,325,4.0,11.0,94,0.00,,,0.00,Wunderground v.1.15,2013-03-08 10:34:00,
2013-03-08 05:39:00,26.8,25.3,30.59,NW,325,4.0,4.0,94,0.00,,,0.00,Wunderground v.1.15,2013-03-08 10:39:00,
2013-03-08 05:45:00,26.8,25.3,30.59,NW,319,4.0,11.0,94,0.00,,,0.00,Wunderground v.1.15,2013-03-08 10:45:00,
2013-03-08 05:50:00,26.8,25.3,30.59,NW,316,4.0,11.0,94,0.00,,,0.00,Wunderground v.1.15,2013-03-08 10:50:00,
2013-03-08 05:55:00,26.8,25.3,30.59,NW,321,5.0,11.0,94,0.00,,,0.00,Wunderground v.1.15,2013-03-08 10:55:00,
2013-03-08 06:00:00,26.8,25.3,30.59,NW,316,5.0,5.0,94,0.00,,,0.00,Wunderground v.1.15,2013-03-08 11:00:00,
2013-03-08 06:10:00,26.7,25.2,30.59,NW,313,5.0,6.0,94,0.00,,,0.00,Wunderground v.1.15,2013-03-08 11:10:00,
2013-03-08 06:20:00,26.6,25.1,30.60,NW,321,5.0,5.0,94,0.00,,,0.00,Wunderground v.1.15,2013-03-08 11:20:00,
2013-03-08 06:25:00,26.5,25.0,30.60,NW,311,5.0,5.0,94,0.00,,,0.00,Wunderground v.1.15,2013-03-08 11:25:00,
2013-03-08 06:30:00,26.5,25.0,30.60,WNW,298,5.0,5.0,94,0.00,,,0.00,Wunderground v.1.15,2013-03-08 11:30:00,
2013-03-08 06:35:00,26.5,25.0,30.60,NW,308,4.0,5.0,94,0.00,,,0.00,Wunderground v.1.15,2013-03-08 11:35:00,
2013-03-08 06:40:00,26.4,24.9,30.60,NW,312,5.0,5.0,94,0.00,,,0.00,Wunderground v.1.15,2013-03-08 11:40:00,
2013-03-08 06:45:00,26.4,24.9,30.60,WNW,300,5.0,5.0,94,0.00,,,0.00,Wunderground v.1.15,2013-03-08 11:45:00,
2013-03-08 06:55:00,26.4,24.9,30.60,NW,310,5.0,5.0,94,0.00,,,0.00,Wunderground v.1.15,2013-03-08 11:55:00,
2013-03-08 07:00:00,26.4,24.9,30.60,NW,310,5.0,5.0,94,0.00,,,0.00,Wunderground v.1.15,2013-03-08 12:00:00,
2013-03-08 07:05:00,26.4,24.9,30.60,NW,309,4.0,9.0,94,0.00,,,0.00,Wunderground v.1.15,2013-03-08 12:05:00,
2013-03-08 07:10:00,26.5,25.0,30.60,NW,309,4.0,4.0,94,0.00,,,0.00,Wunderground v.1.15,2013-03-08 12:10:00,
2013-03-08 07:15:00,26.5,24.8,30.61,NW,309,3.0,9.0,93,0.00,,,0.00,Wunderground v.1.15,2013-03-08 12:15:00,
2013-03-08 07:25:00,26.9,25.1,30.61,WNW,295,4.0,9.0,93,0.00,,,0.00,Wunderground v.1.15,2013-03-08 12:25:00,
2013-03-08 07:30:00,27.1,25.3,30.61,WNW,283,4.0,4.0,93,0.00,,,0.00,Wunderground v.1.15,2013-03-08 12:30:00,
2013-03-08 07:35:00,27.2,25.2,30.61,WNW,287,4.0,5.0,92,0.00,,,0.00,Wunderground v.1.15,2013-03-08 12:35:00,
2013-03-08 07:40:00,27.4,25.4,30.61,WNW,294,4.0,9.0,92,0.00,,,0.00,Wunderground v.1.15,2013-03-08 12:40:00,
2013-03-08 07:45:00,27.6,25.3,30.61,WNW,294,4.0,9.0,91,0.00,,,0.00,Wunderground v.1.15,2013-03-08 12:45:00,
2013-03-08 07:50:00,27.7,25.4,30.61,WNW,292,5.0,9.0,91,0.00,,,0.00,Wunderground v.1.15,2013-03-08 12:50:00,
2013-03-08 08:00:00,28.3,25.7,30.62,WNW,300,6.0,9.0,90,0.00,,,0.00,Wunderground v.1.15,2013-03-08 13:00:00,
2013-03-08 08:20:00,29.2,25.8,30.61,NW,308,7.0,7.0,87,0.00,,,0.00,Wunderground v.1.15,2013-03-08 13:20:00,
2013-03-08 08:25:00,29.4,25.7,30.61,WNW,303,8.0,8.0,86,0.00,,,0.00,Wunderground v.1.15,2013-03-08 13:25:00,
2013-03-08 08:30:00,29.6,25.9,30.61,NW,310,8.0,8.0,86,0.00,,,0.00,Wunderground v.1.15,2013-03-08 13:30:00,
2013-03-08 08:40:00,30.0,26.0,30.61,NW,312,8.0,9.0,85,0.00,,,0.00,Wunderground v.1.15,2013-03-08 13:40:00,
2013-03-08 08:45:00,30.2,26.2,30.62,NW,313,8.0,9.0,85,0.00,,,0.00,Wunderground v.1.15,2013-03-08 13:45:00,
2013-03-08 08:50:00,30.5,26.0,30.62,WNW,290,8.0,8.0,83,0.00,,,0.00,Wunderground v.1.15,2013-03-08 13:50:00,
2013-03-08 08:55:00,30.8,26.2,30.62,NW,326,8.0,9.0,83,0.00,,,0.00,Wunderground v.1.15,2013-03-08 13:55:00,
2013-03-08 09:00:00,31.0,26.1,30.62,NW,308,8.0,12.0,82,0.00,,,0.00,Wunderground v.1.15,2013-03-08 14:00:00,
2013-03-08 09:10:00,31.2,25.7,30.62,NW,314,9.0,10.0,80,0.00,,,0.00,Wunderground v.1.15,2013-03-08 14:10:00,
2013-03-08 09:15:00,31.4,25.6,30.63,NW,323,9.0,12.0,79,0.00,,,0.00,Wunderground v.1.15,2013-03-08 14:15:00,
2013-03-08 09:20:00,31.7,25.6,30.62,NW,317,8.0,10.0,78,0.00,,,0.00,Wunderground v.1.15,2013-03-08 14:20:00,
2013-03-08 09:25:00,32.1,27.5,30.62,NW,325,8.0,10.0,83,0.00,,,0.00,Wunderground v.1.15,2013-03-08 14:25:00,
2013-03-08 09:30:00,32.0,25.0,30.63,WNW,302,8.0,8.0,75,0.00,,,0.00,Wunderground v.1.15,2013-03-08 14:30:00,
2013-03-08 09:35:00,32.3,25.3,30.63,NW,308,8.0,9.0,75,0.00,,,0.00,Wunderground v.1.15,2013-03-08 14:35:00,
2013-03-08 09:45:00,32.7,25.0,30.63,WNW,302,9.0,11.0,73,0.00,,,0.00,Wunderground v.1.15,2013-03-08 14:45:00,
2013-03-08 09:50:00,32.8,25.1,30.63,NE,34,9.0,9.0,73,0.00,,,0.00,Wunderground v.1.15,2013-03-08 14:50:00,
2013-03-08 09:55:00,33.4,26.0,30.63,NW,320,8.0,9.0,74,0.00,,,0.00,Wunderground v.1.15,2013-03-08 14:55:00,
2013-03-08 10:00:00,33.4,25.7,30.63,NW,310,9.0,9.0,73,0.00,,,0.00,Wunderground v.1.15,2013-03-08 15:00:00,
2013-03-08 10:05:00,33.2,25.1,30.63,NW,317,10.0,11.0,72,0.00,,,0.00,Wunderground v.1.15,2013-03-08 15:05:00,
2013-03-08 10:15:00,33.3,24.9,30.63,NW,308,10.0,11.0,71,0.00,,,0.00,Wunderground v.1.15,2013-03-08 15:15:00,
2013-03-08 10:20:00,33.2,24.1,30.63,West,267,11.0,11.0,69,0.00,,,0.01,Wunderground v.1.15,2013-03-08 15:20:00,
2013-03-08 10:25:00,33.9,25.1,30.63,NW,325,10.0,11.0,70,0.00,,,0.01,Wunderground v.1.15,2013-03-08 15:25:00,
2013-03-08 10:30:00,34.1,25.3,30.63,NNE,18,8.0,9.0,70,0.00,,,0.01,Wunderground v.1.15,2013-03-08 15:30:00,
2013-03-08 10:35:00,33.8,25.0,30.63,WNW,293,8.0,9.0,70,0.00,,,0.01,Wunderground v.1.15,2013-03-08 15:35:00,
2013-03-08 10:40:00,33.8,24.7,30.64,NW,318,9.0,9.0,69,0.00,,,0.01,Wunderground v.1.15,2013-03-08 15:40:00,
2013-03-08 10:50:00,34.6,25.5,30.64,NW,325,7.0,9.0,69,0.00,,,0.01,Wunderground v.1.15,2013-03-08 15:50:00,
2013-03-08 10:55:00,34.5,24.7,30.64,NW,319,7.0,9.0,67,0.00,,,0.01,Wunderground v.1.15,2013-03-08 15:55:00,
2013-03-08 11:00:00,34.4,24.2,30.63,North,10,8.0,8.0,66,0.00,,,0.01,Wunderground v.1.15,2013-03-08 16:00:00,
2013-03-08 11:05:00,34.6,24.8,30.63,NNW,331,8.0,9.0,67,0.00,,,0.01,Wunderground v.1.15,2013-03-08 16:05:00,
2013-03-08 11:10:00,34.3,24.1,30.63,NW,321,9.0,10.0,66,0.00,,,0.01,Wunderground v.1.15,2013-03-08 16:10:00,
2013-03-08 11:20:00,34.4,24.6,30.63,NW,317,8.0,9.0,67,0.00,,,0.01,Wunderground v.1.15,2013-03-08 16:20:00,
2013-03-08 11:25:00,34.2,24.4,30.64,NW,326,10.0,10.0,67,0.00,,,0.01,Wunderground v.1.15,2013-03-08 16:25:00,
2013-03-08 11:30:00,34.4,24.6,30.64,NNE,17,9.0,9.0,67,0.00,,,0.01,Wunderground v.1.15,2013-03-08 16:30:00,
2013-03-08 11:35:00,34.9,25.0,30.64,NNW,327,8.0,9.0,67,0.00,,,0.01,Wunderground v.1.15,2013-03-08 16:35:00,
2013-03-08 11:40:00,34.8,25.0,30.64,NW,318,8.0,9.0,67,0.00,,,0.02,Wunderground v.1.15,2013-03-08 16:40:00,
2013-03-08 11:45:00,34.9,24.7,30.64,NW,319,8.0,9.0,66,0.00,,,0.02,Wunderground v.1.15,2013-03-08 16:45:00,
2013-03-08 11:55:00,35.3,24.3,30.64,NNW,334,8.0,9.0,64,0.00,,,0.02,Wunderground v.1.15,2013-03-08 16:55:00,
2013-03-08 12:00:00,35.3,25.1,30.64,North,5,8.0,8.0,66,0.00,,,0.02,Wunderground v.1.15,2013-03-08 17:00:00,
2013-03-08 12:10:00,34.8,25.0,30.64,NW,320,9.0,9.0,67,0.00,,,0.02,Wunderground v.1.15,2013-03-08 17:10:00,
2013-03-08 12:15:00,34.9,24.7,30.64,NW,313,10.0,13.0,66,0.00,,,0.02,Wunderground v.1.15,2013-03-08 17:15:00,
2013-03-08 12:25:00,34.8,24.6,30.64,NW,321,9.0,10.0,66,0.00,,,0.02,Wunderground v.1.15,2013-03-08 17:25:00,
2013-03-08 12:30:00,35.2,25.7,30.64,NW,320,9.0,9.0,68,0.00,,,0.02,Wunderground v.1.15,2013-03-08 17:30:00,
2013-03-08 12:35:00,35.3,24.7,30.64,NNE,23,8.0,9.0,65,0.00,,,0.02,Wunderground v.1.15,2013-03-08 17:35:00,
2013-03-08 12:40:00,35.7,25.4,30.64,NNW,340,8.0,8.0,66,0.00,,,0.02,Wunderground v.1.15,2013-03-08 17:40:00,
2013-03-08 12:45:00,35.6,25.4,30.63,NW,304,8.0,9.0,66,0.00,,,0.02,Wunderground v.1.15,2013-03-08 17:45:00,
2013-03-08 12:50:00,35.4,25.2,30.63,NW,309,8.0,16.0,66,0.00,,,0.02,Wunderground v.1.15,2013-03-08 17:50:00,
2013-03-08 12:55:00,34.8,24.6,30.63,NW,317,9.0,16.0,66,0.00,,,0.02,Wunderground v.1.15,2013-03-08 17:55:00,
2013-03-08 13:00:00,35.2,25.3,30.63,NW,315,9.0,13.0,67,0.00,,,0.02,Wunderground v.1.15,2013-03-08 18:00:00,
2013-03-08 13:05:00,35.4,25.5,30.63,NW,304,9.0,16.0,67,0.00,,,0.02,Wunderground v.1.15,2013-03-08 18:05:00,
2013-03-08 13:10:00,35.7,25.4,30.63,North,9,8.0,16.0,66,0.00,,,0.02,Wunderground v.1.15,2013-03-08 18:10:00,
2013-03-08 13:15:00,35.3,24.7,30.63,NNW,333,8.0,16.0,65,0.00,,,0.02,Wunderground v.1.15,2013-03-08 18:15:00,
2013-03-08 13:20:00,35.4,24.8,30.63,NNW,347,9.0,16.0,65,0.00,,,0.02,Wunderground v.1.15,2013-03-08 18:20:00,
2013-03-08 13:30:00,35.4,25.2,30.63,NW,309,9.0,9.0,66,0.00,,,0.02,Wunderground v.1.15,2013-03-08 18:30:00,
2013-03-08 13:35:00,35.6,25.0,30.63,NE,40,9.0,12.0,65,0.00,,,0.02,Wunderground v.1.15,2013-03-08 18:35:00,
2013-03-08 13:40:00,35.8,25.2,30.63,NE,42,8.0,8.0,65,0.00,,,0.02,Wunderground v.1.15,2013-03-08 18:40:00,
2013-03-08 13:45:00,36.1,25.5,30.63,North,360,7.0,16.0,65,0.00,,,0.02,Wunderground v.1.15,2013-03-08 18:45:00,
2013-03-08 13:50:00,35.9,25.3,30.63,NNW,346,8.0,16.0,65,0.00,,,0.02,Wunderground v.1.15,2013-03-08 18:50:00,
2013-03-08 13:55:00,35.5,24.9,30.63,NW,310,9.0,16.0,65,0.00,,,0.02,Wunderground v.1.15,2013-03-08 18:55:00,
2013-03-08 14:05:00,35.3,25.1,30.63,NNW,330,10.0,16.0,66,0.00,,,0.02,Wunderground v.1.15,2013-03-08 19:05:00,
2013-03-08 14:10:00,35.8,25.2,30.63,North,360,8.0,8.0,65,0.00,,,0.02,Wunderground v.1.15,2013-03-08 19:10:00,
2013-03-08 14:15:00,36.3,25.3,30.63,NW,324,7.0,11.0,64,0.00,,,0.02,Wunderground v.1.15,2013-03-08 19:15:00,
2013-03-08 14:20:00,36.2,24.8,30.63,NW,304,7.0,16.0,63,0.00,,,0.02,Wunderground v.1.15,2013-03-08 19:20:00,
2013-03-08 14:25:00,36.1,25.5,30.63,NW,306,7.0,16.0,65,0.00,,,0.02,Wunderground v.1.15,2013-03-08 19:25:00,
2013-03-08 14:35:00,35.8,24.8,30.63,North,360,8.0,16.0,64,0.00,,,0.02,Wunderground v.1.15,2013-03-08 19:35:00,
2013-03-08 14:40:00,36.4,25.0,30.63,WNW,303,7.0,7.0,63,0.00,,,0.02,Wunderground v.1.15,2013-03-08 19:40:00,
2013-03-08 14:45:00,36.4,25.0,30.63,NW,323,7.0,16.0,63,0.00,,,0.02,Wunderground v.1.15,2013-03-08 19:45:00,
2013-03-08 14:50:00,36.6,25.2,30.63,NW,309,6.0,16.0,63,0.00,,,0.02,Wunderground v.1.15,2013-03-08 19:50:00,
2013-03-08 14:55:00,36.2,24.4,30.63,WNW,296,7.0,16.0,62,0.00,,,0.02,Wunderground v.1.15,2013-03-08 19:55:00,
2013-03-08 15:00:00,36.1,24.3,30.63,NNW,330,8.0,8.0,62,0.00,,,0.02,Wunderground v.1.15,2013-03-08 20:00:00,
2013-03-08 15:09:00,36.9,25.1,30.63,NNW,331,6.0,16.0,62,0.00,,,0.02,Wunderground v.1.15,2013-03-08 20:09:00,
2013-03-08 15:15:00,37.0,25.2,30.63,North,5,6.0,16.0,62,0.00,,,0.02,Wunderground v.1.15,2013-03-08 20:15:00,
2013-03-08 15:20:00,36.8,24.2,30.63,NW,320,7.0,16.0,60,0.00,,,0.02,Wunderground v.1.15,2013-03-08 20:20:00,
2013-03-08 15:25:00,36.7,24.5,30.63,NW,321,8.0,16.0,61,0.00,,,0.02,Wunderground v.1.15,2013-03-08 20:25:00,
2013-03-08 15:30:00,36.5,24.7,30.63,NW,319,8.0,16.0,62,0.00,,,0.02,Wunderground v.1.15,2013-03-08 20:30:00,
2013-03-08 15:39:00,37.0,24.4,30.63,WNW,298,7.0,16.0,60,0.00,,,0.02,Wunderground v.1.15,2013-03-08 20:39:00,
2013-03-08 15:44:00,37.0,24.8,30.63,WNW,302,7.0,16.0,61,0.00,,,0.02,Wunderground v.1.15,2013-03-08 20:44:00,
2013-03-08 15:49:00,36.9,24.3,30.64,NW,304,7.0,16.0,60,0.00,,,0.02,Wunderground v.1.15,2013-03-08 20:49:00,
2013-03-08 15:54:00,36.7,24.1,30.64,NNW,327,8.0,16.0,60,0.00,,,0.02,Wunderground v.1.15,2013-03-08 20:54:00,
2013-03-08 15:59:00,36.6,24.0,30.63,NW,312,9.0,9.0,60,0.00,,,0.02,Wunderground v.1.15,2013-03-08 20:59:00,
2013-03-08 16:04:00,37.0,25.2,30.63,NW,313,7.0,16.0,62,0.00,,,0.02,Wunderground v.1.15,2013-03-08 21:04:00,
2013-03-08 16:10:00,36.7,24.5,30.63,NW,323,8.0,8.0,61,0.00,,,0.02,Wunderground v.1.15,2013-03-08 21:10:00,
2013-03-08 16:15:00,36.8,24.2,30.63,WNW,300,9.0,9.0,60,0.00,,,0.02,Wunderground v.1.15,2013-03-08 21:15:00,
2013-03-08 16:20:00,37.0,24.8,30.63,NW,313,8.0,16.0,61,0.00,,,0.02,Wunderground v.1.15,2013-03-08 21:20:00,
2013-03-08 16:25:00,36.9,24.3,30.63,NW,304,8.0,16.0,60,0.00,,,0.02,Wunderground v.1.15,2013-03-08 21:25:00,
2013-03-08 16:30:00,37.0,24.4,30.63,NW,315,8.0,8.0,60,0.00,,,0.02,Wunderground v.1.15,2013-03-08 21:30:00,
2013-03-08 16:35:00,37.1,24.9,30.63,NW,315,6.0,16.0,61,0.00,,,0.02,Wunderground v.1.15,2013-03-08 21:35:00,
2013-03-08 16:45:00,36.9,24.3,30.64,WNW,299,7.0,16.0,60,0.00,,,0.02,Wunderground v.1.15,2013-03-08 21:45:00,
2013-03-08 16:50:00,36.6,24.0,30.64,NW,317,8.0,8.0,60,0.00,,,0.02,Wunderground v.1.15,2013-03-08 21:50:00,
2013-03-08 16:55:00,36.5,23.9,30.64,NW,316,8.0,11.0,60,0.00,,,0.02,Wunderground v.1.15,2013-03-08 21:55:00,
2013-03-08 17:00:00,36.2,23.6,30.64,NW,317,9.0,9.0,60,0.00,,,0.02,Wunderground v.1.15,2013-03-08 22:00:00,
2013-03-08 17:05:00,36.4,24.2,30.64,NW,313,9.0,16.0,61,0.00,,,0.02,Wunderground v.1.15,2013-03-08 22:05:00,
2013-03-08 17:15:00,36.2,24.0,30.65,NW,308,7.0,16.0,61,0.00,,,0.02,Wunderground v.1.15,2013-03-08 22:15:00,
2013-03-08 17:20:00,36.3,24.1,30.65,NW,316,6.0,6.0,61,0.00,,,0.02,Wunderground v.1.15,2013-03-08 22:20:00,
2013-03-08 17:25:00,36.3,24.5,30.65,NW,310,6.0,16.0,62,0.00,,,0.02,Wunderground v.1.15,2013-03-08 22:25:00,
2013-03-08 17:30:00,35.9,24.1,30.65,NW,311,5.0,16.0,62,0.00,,,0.02,Wunderground v.1.15,2013-03-08 22:30:00,
2013-03-08 17:35:00,35.6,23.9,30.65,NW,309,6.0,16.0,62,0.00,,,0.02,Wunderground v.1.15,2013-03-08 22:35:00,
2013-03-08 17:40:00,35.4,23.7,30.65,NW,320,6.0,6.0,62,0.00,,,0.02,Wunderground v.1.15,2013-03-08 22:40:00,
2013-03-08 17:50:00,35.1,23.4,30.66,NW,311,5.0,16.0,62,0.00,,,0.02,Wunderground v.1.15,2013-03-08 22:50:00,
2013-03-08 17:55:00,34.9,23.6,30.66,NW,309,5.0,16.0,63,0.00,,,0.02,Wunderground v.1.15,2013-03-08 22:55:00,
2013-03-08 18:00:00,34.6,23.7,30.66,NW,309,5.0,5.0,64,0.00,,,0.02,Wunderground v.1.15,2013-03-08 23:00:00,
2013-03-08 18:10:00,34.2,23.7,30.66,NW,309,3.0,3.0,65,0.00,,,0.02,Wunderground v.1.15,2013-03-08 23:10:00,
2013-03-08 18:20:00,33.9,23.4,30.66,NW,309,3.0,3.0,65,0.00,,,0.02,Wunderground v.1.15,2013-03-08 23:20:00,
2013-03-08 18:25:00,34.0,23.5,30.66,NW,309,3.0,3.0,65,0.00,,,0.02,Wunderground v.1.15,2013-03-08 23:25:00,
2013-03-08 18:30:00,33.8,23.3,30.67,WNW,295,3.0,3.0,65,0.00,,,0.02,Wunderground v.1.15,2013-03-08 23:30:00,
2013-03-08 18:35:00,33.8,23.3,30.67,WNW,296,3.0,4.0,65,0.00,,,0.02,Wunderground v.1.15,2013-03-08 23:35:00,
2013-03-08 18:40:00,33.7,23.2,30.67,WNW,296,3.0,3.0,65,0.00,,,0.02,Wunderground v.1.15,2013-03-08 23:40:00,
2013-03-08 18:45:00,33.8,23.3,30.67,WNW,296,3.0,3.0,65,0.00,,,0.02,Wunderground v.1.15,2013-03-08 23:45:00,
2013-03-08 18:55:00,33.7,23.2,30.67,WNW,296,3.0,3.0,65,0.00,,,0.02,Wunderground v.1.15,2013-03-08 23:55:00,
2013-03-08 19:00:00,33.4,22.9,30.67,WNW,296,2.0,2.0,65,0.00,,,0.02,Wunderground v.1.15,2013-03-09 00:00:00,
2013-03-08 19:05:00,33.3,23.2,30.67,WNW,296,2.0,10.0,66,0.00,,,0.02,Wunderground v.1.15,2013-03-09 00:05:00,
2013-03-08 19:20:00,32.9,22.8,30.67,WNW,296,1.0,1.0,66,0.00,,,0.02,Wunderground v.1.15,2013-03-09 00:20:00,
2013-03-08 19:30:00,32.6,22.8,30.67,WNW,296,0.0,10.0,67,0.00,,,0.02,Wunderground v.1.15,2013-03-09 00:30:00,
2013-03-08 19:35:00,32.4,22.7,30.68,WNW,296,0.0,10.0,67,0.00,,,0.02,Wunderground v.1.15,2013-03-09 00:35:00,
2013-03-08 19:40:00,32.1,22.7,30.68,WNW,296,0.0,10.0,68,0.00,,,0.02,Wunderground v.1.15,2013-03-09 00:40:00,
2013-03-08 19:45:00,31.6,22.6,30.68,WNW,296,0.0,10.0,69,0.00,,,0.02,Wunderground v.1.15,2013-03-09 00:45:00,
2013-03-08 19:50:00,31.2,22.5,30.68,WNW,296,0.0,10.0,70,0.00,,,0.02,Wunderground v.1.15,2013-03-09 00:50:00,
2013-03-08 19:55:00,31.2,22.5,30.68,WNW,296,0.0,10.0,70,0.00,,,0.02,Wunderground v.1.15,2013-03-09 00:55:00,
2013-03-08 20:05:00,30.7,22.1,30.68,WNW,296,0.0,10.0,70,0.00,,,0.02,Wunderground v.1.15,2013-03-09 01:05:00,
2013-03-08 20:10:00,30.3,22.0,30.68,WNW,296,0.0,10.0,71,0.00,,,0.02,Wunderground v.1.15,2013-03-09 01:10:00,
2013-03-08 20:15:00,30.0,21.7,30.68,WNW,296,0.0,10.0,71,0.00,,,0.02,Wunderground v.1.15,2013-03-09 01:15:00,
2013-03-08 20:20:00,29.6,21.7,30.68,WNW,296,0.0,10.0,72,0.00,,,0.02,Wunderground v.1.15,2013-03-09 01:20:00,
2013-03-08 20:25:00,29.3,21.4,30.68,WNW,296,0.0,10.0,72,0.00,,,0.02,Wunderground v.1.15,2013-03-09 01:25:00,
2013-03-08 20:35:00,28.7,21.5,30.68,WNW,296,0.0,10.0,74,0.00,,,0.02,Wunderground v.1.15,2013-03-09 01:35:00,
2013-03-08 20:40:00,28.7,21.8,30.68,WNW,296,0.0,10.0,75,0.00,,,0.02,Wunderground v.1.15,2013-03-09 01:40:00,
2013-03-08 20:45:00,28.6,21.7,30.68,WNW,296,0.0,10.0,75,0.00,,,0.02,Wunderground v.1.15,2013-03-09 01:45:00,
2013-03-08 20:50:00,28.4,21.5,30.68,WNW,296,0.0,10.0,75,0.00,,,0.02,Wunderground v.1.15,2013-03-09 01:50:00,
2013-03-08 20:55:00,28.1,21.5,30.68,WNW,296,0.0,10.0,76,0.00,,,0.02,Wunderground v.1.15,2013-03-09 01:55:00,
2013-03-08 21:00:00,27.9,21.3,30.68,WNW,296,0.0,10.0,76,0.00,,,0.02,Wunderground v.1.15,2013-03-09 02:00:00,
2013-03-08 21:10:00,27.6,21.6,30.68,WNW,296,0.0,10.0,78,0.00,,,0.02,Wunderground v.1.15,2013-03-09 02:10:00,
2013-03-08 21:15:00,27.4,21.4,30.68,WNW,296,0.0,10.0,78,0.00,,,0.02,Wunderground v.1.15,2013-03-09 02:15:00,
2013-03-08 21:20:00,27.5,21.8,30.68,WNW,296,1.0,10.0,79,0.00,,,0.02,Wunderground v.1.15,2013-03-09 02:20:00,
2013-03-08 21:25:00,27.7,22.0,30.68,WNW,296,1.0,10.0,79,0.00,,,0.02,Wunderground v.1.15,2013-03-09 02:25:00,
2013-03-08 21:30:00,28.2,22.2,30.68,WNW,296,1.0,10.0,78,0.00,,,0.02,Wunderground v.1.15,2013-03-09 02:30:00,
2013-03-08 21:40:00,29.7,23.1,30.68,WNW,296,2.0,10.0,76,0.00,,,0.02,Wunderground v.1.15,2013-03-09 02:40:00,
2013-03-08 21:45:00,30.3,23.3,30.68,WNW,296,2.0,10.0,75,0.00,,,0.02,Wunderground v.1.15,2013-03-09 02:45:00,
2013-03-08 21:50:00,30.2,22.9,30.68,WNW,296,2.0,2.0,74,0.00,,,0.02,Wunderground v.1.15,2013-03-09 02:50:00,
2013-03-08 21:55:00,30.2,22.9,30.68,WNW,296,2.0,10.0,74,0.00,,,0.02,Wunderground v.1.15,2013-03-09 02:55:00,
2013-03-08 22:00:00,30.2,22.9,30.68,WNW,296,2.0,10.0,74,0.00,,,0.02,Wunderground v.1.15,2013-03-09 03:00:00,
2013-03-08 22:05:00,30.2,22.9,30.68,WNW,296,2.0,10.0,74,0.00,,,0.02,Wunderground v.1.15,2013-03-09 03:05:00,
2013-03-08 22:15:00,30.1,22.8,30.68,WNW,296,2.0,10.0,74,0.00,,,0.02,Wunderground v.1.15,2013-03-09 03:15:00,
2013-03-08 22:20:00,30.2,22.9,30.68,WNW,296,2.0,10.0,74,0.00,,,0.02,Wunderground v.1.15,2013-03-09 03:20:00,
2013-03-08 22:25:00,30.3,23.0,30.68,WNW,296,2.0,10.0,74,0.00,,,0.02,Wunderground v.1.15,2013-03-09 03:25:00,
2013-03-08 22:30:00,30.5,23.5,30.68,WNW,296,2.0,10.0,75,0.00,,,0.02,Wunderground v.1.15,2013-03-09 03:30:00,
2013-03-08 22:35:00,30.4,23.4,30.67,WNW,296,2.0,10.0,75,0.00,,,0.02,Wunderground v.1.15,2013-03-09 03:35:00,
2013-03-08 22:44:00,30.1,23.1,30.68,WNW,296,3.0,10.0,75,0.00,,,0.02,Wunderground v.1.15,2013-03-09 03:44:00,
2013-03-08 22:49:00,30.2,23.5,30.67,WNW,294,3.0,3.0,76,0.00,,,0.02,Wunderground v.1.15,2013-03-09 03:49:00,
2013-03-08 22:54:00,30.2,23.2,30.68,WNW,294,3.0,10.0,75,0.00,,,0.02,Wunderground v.1.15,2013-03-09 03:54:00,
2013-03-08 22:59:00,30.1,23.4,30.67,WNW,294,3.0,10.0,76,0.00,,,0.02,Wunderground v.1.15,2013-03-09 03:59:00,
2013-03-08 23:04:00,30.1,23.4,30.67,WNW,294,3.0,10.0,76,0.00,,,0.02,Wunderground v.1.15,2013-03-09 04:04:00,
2013-03-08 23:09:00,30.1,23.4,30.67,WNW,294,2.0,10.0,76,0.00,,,0.02,Wunderground v.1.15,2013-03-09 04:09:00,
2013-03-08 23:15:00,30.1,23.4,30.67,WNW,294,2.0,10.0,76,0.00,,,0.02,Wunderground v.1.15,2013-03-09 04:15:00,
2013-03-08 23:20:00,30.3,24.0,30.67,West,279,3.0,10.0,77,0.00,,,0.02,Wunderground v.1.15,2013-03-09 04:20:00,
2013-03-08 23:25:00,30.6,23.9,30.67,West,279,3.0,10.0,76,0.00,,,0.02,Wunderground v.1.15,2013-03-09 04:25:00,
2013-03-08 23:30:00,30.5,23.8,30.67,West,279,3.0,3.0,76,0.00,,,0.02,Wunderground v.1.15,2013-03-09 04:30:00,
2013-03-08 23:35:00,30.3,23.6,30.67,West,279,3.0,10.0,76,0.00,,,0.02,Wunderground v.1.15,2013-03-09 04:35:00,
2013-03-08 23:40:00,30.3,24.0,30.67,West,277,3.0,3.0,77,0.00,,,0.02,Wunderground v.1.15,2013-03-09 04:40:00,
2013-03-08 23:50:00,30.5,24.1,30.67,West,277,3.0,10.0,77,0.00,,,0.02,Wunderground v.1.15,2013-03-09 04:50:00,
2013-03-08 23:55:00,30.5,24.1,30.67,West,281,3.0,10.0,77,0.00,,,0.02,Wunderground v.1.15,2013-03-09 04:55:00,